CAPE
0 0 0 0 0 0 0 0 0 0 10 13 35 9 21 17 0 0 103 18 66 117 155 565 621 576 739 1311 1210 1105 1221 1663 1494 1458 1644 1626 1728 1690 1275 1114 1637 1295 1307 1418
0 0 0 0 0 0 0 0 0 0 7 19 39 47 0 0 0 0 31 63 41 88 86 324 453 527 695 1044 1143 1080 864 2098 1669 1776 1675 1508 1614 1383 1367 1319 1235 1207 1789 1609
0 0 0 0 0 0 0 0 0 0 0 15 74 49 42 7 17 39 21 20 64 82 112 187 267 385 451 795 1317 1247 1014 1626 2041 1976 1653 1780 1439 1485 1459 1502 1802 1863 1893 1747
0 0 0 0 0 0 0 0 0 0 0 1 54 33 24 43 305 176 60 25 15 92 128 156 275 339 386 833 1048 1305 1419 1729 1827 1945 1770 1839 1557 1281 1288 1464 1296 1633 2145 2001
0 0 0 0 0 0 0 0 0 0 0 31 0 2 1 127 55 3 67 26 3 0 65 172 385 333 434 598 1001 1657 1586 1566 1998 1778 1813 1569 1353 1103 1313 1611 1386 1772 2240 1859
0 0 0 0 0 0 0 0 0 0 0 0 2 0 0 49 17 20 72 95 21 16 12 184 331 461 416 796 1181 1479 1967 2017 2216 1767 2098 1823 1652 1534 1242 1022 1667 1828 1692 1492
0 0 0 0 0 0 0 0 0 0 0 0 0 1 0 48 53 51 144 223 68 30 63 57 343 555 538 861 1050 1778 1987 2101 2332 2158 1634 2233 1804 1630 1275 1027 1726 1725 1447 1899
0 0 0 0 0 0 0 0 0 0 0 0 0 0 0 12 55 92 240 279 121 117 82 90 353 503 705 760 1272 1749 2161 2087 2526 2478 2457 1752 2223 1497 1174 1733 1735 1511 1405 1611
0 0 0 0 0 0 0 0 0 0 0 0 0 0 0 1 28 96 67 201 178 41 153 182 190 461 708 775 1504 1543 2482 2521 2607 2796 2684 2294 2059 2032 1754 1867 2087 1671 1459 1708
0 0 0 0 0 0 0 0 0 0 0 0 0 0 0 0 25 61 59 63 53 6 49 186 233 462 717 851 1296 1638 2216 2696 2893 2567 2966 2650 2392 1820 1781 1942 1923 2262 1219 1280
0 0 0 0 0 0 0 0 0 0 0 0 0 0 0 0 36 148 90 41 53 25 73 255 250 423 823 986 1254 1604 2169 2750 2977 3073 2949 2832 2704 2297 1945 2330 1980 1980 1595 1411
0 0 0 0 0 0 0 0 0 0 0 0 0 0 0 0 132 181 151 86 48 5 46 222 364 484 978 1144 1124 1575 2623 2755 3040 3196 3122 3055 3011 2816 2433 2034 2308 2154 1691 1570
0 0 0 0 0 0 0 0 0 0 0 0 0 0 0 0 0 12 30 36 18 14 436 534 480 843 1115 1190 1161 1578 2194 3041 3236 3359 3255 3236 3010 3122 2989 2412 2729 2799 1867 1780
1 0 0 0 0 0 0 0 0 0 0 0 0 0 0 0 20 21 39 22 9 28 244 638 692 1001 1108 1358 1320 1312 1917 2793 3248 3499 3376 3161 3091 3086 3170 3022 2379 2980 2851 2264
0 0 0 0 0 0 0 0 0 0 0 0 0 0 0 0 101 66 98 95 54 140 463 713 798 730 1197 1353 1421 1450 1650 1991 2940 3228 3330 3128 3097 3103 3168 3129 3134 2454 2867 2707
0 0 0 0 0 0 0 0 0 0 0 0 0 0 0 0 0 303 173 54 7 424 887 672 995 768 826 1144 1366 1498 1632 1934 2288 2962 3132 3003 3029 3072 3182 3248 3221 3255 2657 2817
0 0 0 0 0 0 0 0 0 0 0 0 0 0 0 0 0 41 82 164 24 20 601 715 854 1507 848 957 1153 1368 1587 1705 2100 2571 2952 2977 2845 3077 3052 3193 3121 3201 3235 3065
0 0 0 0 0 0 0 0 0 0 0 0 0 0 0 0 0 7 0 73 14 3 27 351 700 1085 1924 1121 1110 1296 1446 1743 1941 2109 2709 2839 2991 2889 3184 3157 3172 3257 3273 3288
0 0 0 0 0 0 0 0 0 3 0 36 286 158 2 0 0 0 0 0 0 0 15 0 361 1030 1480 1818 1333 1181 1301 1565 1736 1809 2075 2624 2769 3143 3305 3329 3291 3339 3331 3303
0 0 0 0 0 0 0 52 239 148 206 730 560 487 372 264 82 24 433 984 73 6 0 0 47 39 1577 1927 2005 1683 1378 1322 1390 1500 1895 2407 2598 3052 3551 3455 3431 3375 3245 2592
1 16 0 27 0 0 78 257 208 162 468 489 398 439 545 460 479 466 476 1084 1221 936 526 69 247 626 1659 2020 2156 2021 1755 1522 1637 1402 2782 3153 3625 3789 3677 3524 3440 3012 2753 2597
0 0 6 86 91 53 436 353 413 658 961 1193 1184 1408 654 497 392 518 841 1022 1226 991 882 3042 1358 1945 2357 2445 2479 2347 1895 1867 3109 3429 4164 4248 4276 4036 3763 3480 2977 2898 2609 2430
0 0 5 13 127 366 441 614 483 543 951 1004 1136 1559 1289 1379 1654 1824 1422 1362 1585 2108 3051 3236 3632 3892 3769 3031 3015 3591 3909 3786 3816 4293 4288 4208 4146 4227 4085 2857 2419 2379 1668 1640
35 93 46 127 0 186 146 181 859 670 331 554 1003 1144 1200 1269 1463 1607 1873 2298 2404 2607 3031 3069 3159 3418 3652 3671 3754 3866 3866 3873 4021 4008 4125 4076 3977 3611 3130 2520 1632 1527 1337 1192
303 73 116 142 561 680 609 501 518 398 236 514 836 1105 1285 1402 1288 1354 1494 1706 2111 2543 2916 3028 3172 3612 3576 3493 3542 3550 3645 3733 3830 3798 3485 3365 3276 3156 2630 1462 1392 1296 1226 1269
2 137 59 151 308 371 380 162 172 205 201 389 654 885 1072 1059 998 913 937 878 1133 1088 1551 3086 3361 3368 3475 3654 3602 3438 3338 3334 3265 2678 2807 2841 2721 1876 1726 1483 1365 1177 1009 939
CIN
0 0 0 0 0 0 0 0 0 0 -9 -20 -98 -171 -116 -59 0 0 -158 -107 -141 -102 -74 -57 -58 -76 -69 -93 -128 -129 -92 -122 -121 -92 -56 -30 -29 -14 -42 -33 -52 -20 -125 -76
0 0 0 0 0 0 0 0 0 0 -2 -2 -148 -138 0 0 0 0 -178 -163 -157 -150 -133 -96 -65 -77 -95 -119 -149 -176 -159 -59 -79 -86 -61 -41 -28 -27 -30 -33 -69 -46 -60 -32
0 0 0 0 0 0 0 0 0 0 0 -32 -77 -143 -183 -55 -12 -7 -94 -156 -135 -188 -209 -192 -146 -134 -135 -156 -178 -187 -199 -108 -51 -46 -43 -48 -35 -41 -28 -26 -44 -66 -26 -71
0 0 0 0 0 0 0 0 0 0 0 -1 -18 -16 -177 -35 -123 -75 -64 -23 -170 -153 -229 -239 -216 -188 -186 -195 -193 -199 -186 -125 -67 -34 -36 -11 -21 -34 -47 -38 -30 -66 -51 -42
0 0 0 0 0 0 0 0 0 0 0 -19 0 -7 -92 -57 -126 -74 -48 -19 -30 0 -172 -227 -240 -259 -222 -269 -262 -214 -193 -155 -88 -59 -36 -25 -20 -43 -46 -23 -23 -81 -28 -26
0 0 0 0 0 0 0 0 0 0 0 0 -7 0 0 -19 -43 -38 -29 -18 -33 -96 -69 -213 -234 -246 -262 -281 -264 -237 -169 -127 -84 -64 -30 -28 -32 -37 -42 -76 -64 -55 -33 -52
0 0 0 0 0 0 0 0 0 0 0 0 0 -3 0 -50 -16 -65 -55 -7 -9 -45 -59 -56 -239 -260 -294 -313 -332 -270 -201 -145 -85 -72 -87 -17 -23 -36 -100 -149 -49 -58 -57 -35
0 0 0 0 0 0 0 0 0 0 0 0 0 0 0 -49 -44 -85 -27 -15 -15 -27 -46 -36 -258 -271 -315 -301 -334 -280 -229 -176 -84 -51 -39 -66 -18 -81 -152 -53 -47 -77 -94 -50
0 0 0 0 0 0 0 0 0 0 0 0 0 0 0 -18 -17 -30 -11 -23 -31 -65 -13 -27 -170 -248 -325 -321 -325 -329 -219 -157 -95 -51 -39 -40 -79 -78 -100 -62 -40 -32 -63 -60
0 0 0 0 0 0 0 0 0 0 0 0 0 0 0 0 -65 -51 -30 -14 -49 -58 -39 -29 -52 -234 -343 -351 -344 -311 -283 -197 -104 -74 -41 -60 -98 -143 -91 -48 -47 -20 -65 -137
0 0 0 0 0 0 0 0 0 0 0 0 0 0 0 0 -66 -38 -25 -29 -78 -115 -121 -113 -41 -209 -324 -355 -337 -323 -307 -201 -121 -76 -69 -76 -103 -118 -97 -41 -80 -49 -53 -111
0 0 0 0 0 0 0 0 0 0 0 0 0 0 0 0 -87 -84 -33 -16 -19 -31 -28 -42 -36 -165 -307 -333 -313 -326 -274 -248 -175 -122 -91 -96 -95 -82 -86 -114 -66 -88 -109 -89
0 0 0 0 0 0 0 0 0 0 0 0 0 0 0 0 0 -10 -94 -37 -34 -69 -68 -70 -39 -153 -247 -286 -326 -324 -283 -229 -190 -137 -118 -96 -106 -74 -65 -112 -79 -64 -107 -109
-35 0 0 0 0 0 0 0 0 0 0 0 0 0 0 0 -54 -66 -14 -33 -109 -57 -116 -34 -51 -143 -177 -252 -309 -318 -297 -242 -202 -150 -128 -125 -126 -127 -96 -99 -144 -73 -50 -96
0 0 0 0 0 0 0 0 0 0 0 0 0 0 0 0 -111 -83 -52 -91 -133 -112 -172 -44 -53 -105 -164 -196 -249 -298 -289 -269 -238 -199 -162 -166 -176 -148 -114 -94 -97 -134 -52 -55
0 0 0 0 0 0 0 0 0 0 0 0 0 0 0 0 0 -93 -84 -9 -22 -65 -126 -110 -71 -53 -117 -164 -187 -265 -306 -280 -239 -251 -234 -204 -176 -156 -124 -98 -106 -85 -104 -61
0 0 0 0 0 0 0 0 0 0 0 0 0 0 0 0 0 -116 -122 -84 -5 -89 -54 -68 -92 -227 -52 -213 -225 -273 -289 -289 -258 -250 -261 -232 -210 -175 -159 -112 -100 -81 -55 -39
0 0 0 0 0 0 0 0 0 0 0 0 0 0 0 0 0 -82 0 -10 -28 -65 -82 -158 -154 -142 -164 -202 -209 -269 -289 -302 -298 -282 -273 -242 -224 -205 -151 -121 -94 -78 -37 -23
0 0 0 0 0 0 0 0 0 -2 0 -47 -98 -111 -109 0 0 0 0 0 0 0 -139 0 -108 -125 -197 -69 -210 -206 -228 -267 -278 -285 -311 -311 -271 -205 -163 -102 -83 -63 -9 -2
0 0 0 0 0 0 0 -47 -29 -57 -42 -135 -146 -141 -136 -172 -218 -19 -254 -129 -272 -18 0 0 -230 -181 -211 -117 -52 -38 -28 -287 -294 -258 -390 -344 -274 -224 -135 -69 -62 -48 -40 -44
-1 -85 -9 -22 0 0 -80 -154 -45 -15 -98 -157 -161 -145 -141 -135 -147 -198 -218 -147 -147 -165 -112 -28 -141 -127 -216 -202 -70 -41 -40 -44 -356 -312 -275 -255 -176 -119 -101 -48 -64 -58 -53 -75
0 0 -4 -26 -22 -5 -154 -76 -57 -168 -86 -130 -175 -167 -135 -173 -203 -160 -110 -104 -150 -130 -108 -115 -343 -269 -356 -203 -149 -235 -49 -268 -284 -182 -134 -94 -67 -66 -46 -55 -109 -87 -98 -99
0 0 -8 -7 -15 -99 -101 -48 -188 -196 -155 -190 -207 -196 -161 -199 -174 -190 -114 -89 -94 -126 -88 -86 -145 -205 -306 -317 -288 -292 -285 -249 -152 -95 -73 -54 -41 -21 -7 -25 -84 -98 -188 -105
-12 -80 -6 -7 -1 -22 -62 -56 -158 -111 -349 -125 -173 -147 -196 -203 -148 -127 -137 -117 -99 -66 -80 -153 -215 -166 -144 -223 -249 -246 -182 -170 -126 -88 -38 -7 -11 -16 -25 -49 -103 -194 -199 -158
-2 -61 -53 -63 -54 -21 -38 0 -6 -101 -175 -68 -97 -105 -109 -73 -70 -74 -61 -83 -82 -81 -125 -166 -190 -202 -181 -179 -182 -138 -115 -129 -74 -51 -45 -36 -28 -18 -50 -204 -202 -205 -187 -109
-10 -32 -67 -26 -43 -30 0 -6 -32 -24 -53 -80 -59 -60 -43 -33 -24 -54 -30 -85 -94 -87 -9 -78 -83 -107 -101 -72 -72 -71 -54 -36 -46 -59 -44 -41 -48 -145 -166 -191 -186 -171 -127 -104
Wind_Speed
nan nan nan nan nan nan nan nan nan nan nan nan nan nan nan nan nan nan 26 nan nan 16 9 8 8 7 5 7 10 9 7 11 10 7 6 4 3 2 2 1 6 10 11 14
nan nan nan nan nan nan nan nan nan nan nan nan nan nan nan nan nan nan nan nan nan nan nan 13 11 11 10 12 14 13 12 11 13 9 5 4 3 1 1 2 7 13 15 18
nan nan nan nan nan nan nan nan nan nan nan nan nan nan nan nan nan nan nan nan nan nan 20 13 14 11 12 14 15 16 17 16 13 13 10 6 6 6 3 3 7 15 19 20
nan nan nan nan nan nan nan nan nan nan nan nan nan nan nan nan 31 20 nan nan nan nan 26 25 23 19 18 16 17 18 17 18 17 15 13 11 9 8 3 5 10 14 19 21
nan nan nan nan nan nan nan nan nan nan nan nan nan nan nan 24 nan nan nan nan nan nan nan 27 29 30 28 26 26 23 22 20 20 18 17 14 12 9 6 7 11 14 16 18
nan nan nan nan nan nan nan nan nan nan nan nan nan nan nan nan nan nan nan nan nan nan nan 23 27 30 28 30 29 28 28 25 23 22 18 18 15 12 10 11 13 16 18 15
nan nan nan nan nan nan nan nan nan nan nan nan nan nan nan nan nan nan 34 24 nan nan nan nan 26 31 34 29 29 26 27 26 26 24 18 19 17 12 13 14 15 18 12 11
nan nan nan nan nan nan nan nan nan nan nan nan nan nan nan nan nan nan 40 27 35 33 nan nan 24 26 34 31 27 28 28 27 25 26 24 19 18 11 11 13 13 11 13 12
nan nan nan nan nan nan nan nan nan nan nan nan nan nan nan nan nan nan nan 33 45 nan 34 10 22 30 32 29 30 29 27 27 26 26 26 21 18 14 14 14 10 5 9 14
nan nan nan nan nan nan nan nan nan nan nan nan nan nan nan nan nan nan nan nan nan nan nan 18 16 28 40 34 28 26 23 25 23 23 22 19 16 13 12 12 4 5 11 19
nan nan nan nan nan nan nan nan nan nan nan nan nan nan nan nan nan 30 nan nan nan nan nan 36 33 32 40 33 28 30 24 23 24 23 22 20 15 13 10 3 4 11 13 13
nan nan nan nan nan nan nan nan nan nan nan nan nan nan nan nan 26 19 32 nan nan nan nan 37 32 36 35 32 26 27 22 23 26 26 22 22 15 10 6 8 6 10 14 15
nan nan nan nan nan nan nan nan nan nan nan nan nan nan nan nan nan nan nan nan nan nan 34 35 31 38 35 29 23 24 23 23 24 26 21 17 13 9 6 8 6 8 13 14
nan nan nan nan nan nan nan nan nan nan nan nan nan nan nan nan nan nan nan nan nan nan 29 37 40 37 35 34 24 23 24 25 25 23 18 11 9 7 5 6 5 3 10 14
nan nan nan nan nan nan nan nan nan nan nan nan nan nan nan nan 34 nan nan nan nan 23 29 32 35 37 28 28 26 24 24 27 26 23 17 9 7 4 2 2 3 6 15 20
nan nan nan nan nan nan nan nan nan nan nan nan nan nan nan nan nan 32 24 nan nan 37 32 32 39 42 37 38 40 39 29 27 26 25 19 10 5 4 1 7 11 16 18 22
nan nan nan nan nan nan nan nan nan nan nan nan nan nan nan nan nan nan nan 30 nan nan 27 38 37 44 43 45 43 45 38 32 27 27 20 16 12 6 5 9 12 15 22 26
nan nan nan nan nan nan nan nan nan nan nan nan nan nan nan nan nan nan nan nan nan nan nan 35 35 41 47 47 50 39 43 34 30 29 25 23 17 13 17 20 22 27 30 31
nan nan nan nan nan nan nan nan nan nan nan nan 50 49 nan nan nan nan nan nan nan nan nan nan 36 43 40 43 47 46 46 38 36 31 26 25 22 17 20 26 31 33 34 33
nan nan nan nan nan nan nan nan 56 56 51 53 58 57 51 49 nan nan 63 68 nan nan nan nan nan nan 38 31 43 47 41 37 36 28 24 27 22 22 24 29 36 35 37 44
nan nan nan nan nan nan nan 59 46 49 49 60 64 61 59 53 42 39 47 68 70 72 65 nan 55 51 44 39 46 46 43 42 29 30 38 37 34 32 31 33 38 39 36 40
nan nan nan nan nan nan 63 57 55 54 64 66 63 56 53 50 47 44 39 43 53 72 82 79 63 51 46 50 55 45 30 39 42 40 47 46 43 34 32 42 38 36 42 46
nan nan nan nan 55 50 61 49 53 67 70 67 63 64 61 64 61 56 45 44 47 50 54 62 91 81 66 61 62 64 52 49 48 47 48 45 41 38 40 41 43 46 55 44
nan nan nan 69 nan 50 63 51 68 67 67 61 56 65 55 55 57 56 54 53 50 55 57 58 58 66 76 76 67 62 60 54 55 52 50 43 47 44 43 43 47 51 52 52
64 nan 53 54 69 55 43 56 66 68 74 51 57 54 54 61 59 61 57 55 52 48 59 69 66 66 64 58 72 72 65 64 58 53 51 52 50 46 47 48 47 52 53 52
nan 62 nan 57 48 35 52 72 39 54 43 61 65 58 53 56 55 54 55 54 58 66 53 70 72 72 66 64 62 71 75 75 61 58 51 48 46 45 49 50 53 64 59 58
Wind_Direction
nan nan nan nan nan nan nan nan nan nan nan nan nan nan nan nan nan nan 320 nan nan 352 6 349 344 340 294 311 320 330 326 333 336 333 334 351 24 64 113 27 334 339 345 359
nan nan nan nan nan nan nan nan nan nan nan nan nan nan nan nan nan nan nan nan nan nan nan 343 350 337 328 324 324 326 334 313 332 325 326 316 302 23 328 8 346 354 350 345
nan nan nan nan nan nan nan nan nan nan nan nan nan nan nan nan nan nan nan nan nan nan 340 337 339 333 331 328 319 330 333 320 309 311 300 275 255 230 248 320 352 353 348 338
nan nan nan nan nan nan nan nan nan nan nan nan nan nan nan nan 275 228 nan nan nan nan 341 338 340 337 335 322 326 324 319 318 309 301 299 287 277 269 278 333 336 343 339 338
nan nan nan nan nan nan nan nan nan nan nan nan nan nan nan 284 nan nan nan nan nan nan nan 344 341 342 337 329 326 318 321 321 308 306 298 294 283 296 292 287 320 323 331 331
nan nan nan nan nan nan nan nan nan nan nan nan nan nan nan nan nan nan nan nan nan nan nan 335 345 337 335 325 321 320 319 319 309 309 293 300 300 306 314 296 310 330 329 323
nan nan nan nan nan nan nan nan nan nan nan nan nan nan nan nan nan nan 316 314 nan nan nan nan 332 335 331 324 322 317 319 313 310 311 308 293 307 316 307 302 318 326 317 313
nan nan nan nan nan nan nan nan nan nan nan nan nan nan nan nan nan nan 297 288 297 275 nan nan 338 338 334 324 320 319 316 313 312 315 307 301 291 306 302 300 303 318 325 338
nan nan nan nan nan nan nan nan nan nan nan nan nan nan nan nan nan nan nan 306 321 nan 291 2 338 334 335 318 318 319 316 315 314 309 310 307 301 312 304 301 308 319 339 358
nan nan nan nan nan nan nan nan nan nan nan nan nan nan nan nan nan nan nan nan nan nan nan 290 336 326 320 325 309 311 319 332 331 324 313 314 315 318 308 300 340 328 332 330
nan nan nan nan nan nan nan nan nan nan nan nan nan nan nan nan nan 295 nan nan nan nan nan 312 329 312 327 315 302 304 316 326 331 331 336 337 327 332 338 313 9 341 342 340
nan nan nan nan nan nan nan nan nan nan nan nan nan nan nan nan 224 287 307 nan nan nan nan 327 317 296 308 310 309 306 313 324 330 333 344 353 357 15 23 44 9 338 348 344
nan nan nan nan nan nan nan nan nan nan nan nan nan nan nan nan nan nan nan nan nan nan 302 292 279 287 296 306 313 300 311 320 324 336 346 5 34 47 47 41 5 339 344 328
nan nan nan nan nan nan nan nan nan nan nan nan nan nan nan nan nan nan nan nan nan nan 258 262 271 278 288 294 295 297 303 310 322 339 345 13 55 69 67 44 32 333 329 317
nan nan nan nan nan nan nan nan nan nan nan nan nan nan nan nan 216 nan nan nan nan 219 246 244 267 276 287 297 302 298 301 307 312 326 342 14 43 89 58 56 29 334 304 311
nan nan nan nan nan nan nan nan nan nan nan nan nan nan nan nan nan 217 246 nan nan 232 236 255 261 272 278 286 293 294 303 313 306 312 340 320 336 339 351 324 312 314 337 331
nan nan nan nan nan nan nan nan nan nan nan nan nan nan nan nan nan nan nan 243 nan nan 234 245 244 262 279 285 293 294 303 308 312 312 313 327 312 304 298 289 303 314 326 317
nan nan nan nan nan nan nan nan nan nan nan nan nan nan nan nan nan nan nan nan nan nan nan 220 256 257 266 279 287 294 291 299 300 297 298 308 314 307 268 286 301 302 307 313
nan nan nan nan nan nan nan nan nan nan nan nan 233 231 nan nan nan nan nan nan nan nan nan nan 219 238 251 271 278 280 285 288 293 285 287 296 308 299 277 285 287 287 289 287
nan nan nan nan nan nan nan nan 213 211 218 212 224 227 229 239 nan nan 217 223 nan nan nan nan nan nan 230 257 267 278 279 282 291 284 281 285 291 285 277 278 278 281 284 294
nan nan nan nan nan nan nan 211 213 216 218 220 229 232 236 241 253 247 224 227 229 233 239 nan 254 252 256 250 262 266 278 286 288 267 255 260 267 274 280 276 278 280 290 289
nan nan nan nan nan nan 211 209 214 216 219 225 229 223 228 233 235 243 243 246 235 234 235 237 242 247 251 256 266 273 274 259 253 259 254 257 267 274 280 278 274 281 290 285
nan nan nan nan 194 209 213 217 206 218 224 224 233 224 239 239 233 229 237 242 246 244 248 248 243 239 236 250 259 258 259 256 254 257 258 262 265 267 269 273 280 280 288 296
nan nan nan 194 nan 215 207 207 228 227 229 232 234 239 230 241 235 234 237 241 247 241 244 250 251 244 236 238 244 245 254 249 253 256 258 260 259 260 270 273 277 282 289 295
204 nan 194 182 190 211 225 208 221 233 234 238 220 227 231 238 241 245 242 241 241 239 252 250 252 246 239 237 239 245 245 249 248 248 249 249 254 261 261 260 264 275 275 284
nan 204 nan 181 185 190 201 219 228 233 236 230 236 238 236 243 244 247 253 255 247 242 221 243 248 243 244 240 245 247 245 248 249 246 247 247 252 259 262 264 260 256 268 274